Weather History for Bishop, CA

Change the Weather History Date:

Thursday, December 13, 2012

  Actual Average Record
Temperature  
Mean Temperature 40 °F 38 °F  
Max Temperature 46 °F 53 °F 74 °F (1953)
Min Temperature 33 °F 22 °F 8 °F (1967)
Degree Days  
Heating Degree Days 25 28  
Month to date heating degree days 267 345  
Since 1 July heating degree days 1088 1246  
Cooling Degree Days 0 0  
Month to date cooling degree days 0 0  
Year to date cooling degree days 1161 1104  
Moisture  
Dew Point 29 °F    
Average Humidity 73    
Maximum Humidity 96    
Minimum Humidity 49    
Precipitation  
Precipitation 0.23 in 0.02 in 0.23 in (2012)
Month to date precipitation 0.25 0.26  
Year to date precipitation 2.96 4.64  
Snow  
Snow T in 0.00 in T in (2012)
Month to date snowfall T 0.4  
Since 1 July snowfall T 0.8  
Snow Depth 0.00 in    
Sea Level Pressure  
Sea Level Pressure 29.71 in    
Wind  
Wind Speed 9 mph (North)    
Max Wind Speed 18 mph    
Max Gust Speed 24 mph    
Visibility 9 miles    
Events Rain , Snow    
T = Trace of Precipitation, MM = Missing Value Source: NWS Daily Summary

Daily Weather History Graph

Daily Weather History Graph

Search for Another Location

Airport:

Trip Planner

Search our weather history database for the weather conditions in past years. The results will help you decide how hot, cold, wet, or windy it might be!

Date:

Astronomy

Dec. 13, 2012 Rise Set
Actual Time 6:59 AM PST 4:36 PM PST
Civil Twilight 6:30 AM PST 5:05 PM PST
Nautical Twilight 5:57 AM PST 5:38 PM PST
Astronomical Twilight 5:25 AM PST 6:10 PM PST
Moon 7:13 AM PST (12/13) 5:23 PM PST (12/13)
Length of Visible Light 10h 35m
Length of Day
9h 36m
New Moon, 0% of the Moon is Illuminated
Dec 13
New Moon
Dec 19
First Quarter
Dec 28
Full
Jan 4
Last Quarter
Jan 11
New

Hourly Weather History & Observations

Time (PST) Temp. Windchill Dew Point Humidity Pressure Visibility Wind Dir Wind Speed Gust Speed Precip Events Conditions
12:56 AM 44.6 °F - 26.6 °F 49% 29.70 in 10.0 mi Calm Calm - N/A   Overcast
1:56 AM 37.9 °F 31.5 °F 30.9 °F 76% 29.66 in 10.0 mi NNW 9.2 mph - 0.00 in Rain Light Rain
2:09 AM 35.6 °F 29.9 °F 30.2 °F 81% 29.73 in 2.5 mi North 6.9 mph - 0.04 in Rain Heavy Rain
2:40 AM 33.8 °F 27.0 °F 30.2 °F 87% 29.73 in 3.0 mi North 8.1 mph - 0.19 in Rain Heavy Rain
2:56 AM 33.1 °F 25.5 °F 30.9 °F 92% 29.69 in 5.0 mi North 9.2 mph - 0.20 in Rain Light Rain
3:17 AM 33.8 °F 26.4 °F 30.2 °F 87% 29.72 in 10.0 mi North 9.2 mph - 0.01 in Rain Light Rain
3:54 AM 33.8 °F 27.7 °F 32.0 °F 93% 29.72 in 10.0 mi West 6.9 mph - 0.01 in   Overcast
3:56 AM 33.8 °F 27.7 °F 32.0 °F 93% 29.72 in 10.0 mi West 6.9 mph - N/A   Overcast
4:56 AM 35.1 °F 31.0 °F 32.0 °F 89% 29.69 in 10.0 mi NNW 4.6 mph - 0.00 in   Overcast
5:26 AM 35.6 °F 31.7 °F 33.8 °F 93% 29.72 in 10.0 mi NW 4.6 mph - N/A   Overcast
5:56 AM 34.0 °F 29.8 °F 32.0 °F 92% 29.69 in 10.0 mi WNW 4.6 mph - 0.00 in   Overcast
6:38 AM 33.8 °F 27.0 °F 30.2 °F 87% 29.73 in 6.0 mi ENE 8.1 mph - 0.01 in Rain Rain
6:56 AM 33.1 °F 27.7 °F 30.9 °F 92% 29.70 in 10.0 mi NE 5.8 mph - 0.02 in Rain Light Rain
7:10 AM 33.8 °F 30.8 °F 30.2 °F 87% 29.72 in 10.0 mi NW 3.5 mph - 0.00 in   Overcast
7:56 AM 35.1 °F 30.1 °F 33.1 °F 92% 29.71 in 10.0 mi WNW 5.8 mph - 0.00 in   Overcast
8:56 AM 37.0 °F 33.3 °F 33.1 °F 86% 29.72 in 10.0 mi North 4.6 mph - N/A   Overcast
9:56 AM 37.9 °F - 33.1 °F 83% 29.73 in 10.0 mi Calm Calm - 0.00 in   Overcast
10:56 AM 43.0 °F 41.3 °F 32.0 °F 65% 29.71 in 10.0 mi NNE 3.5 mph - N/A   Partly Cloudy
11:56 AM 42.1 °F 34.2 °F 30.0 °F 62% 29.70 in 10.0 mi North 16.1 mph - 0.00 in   Mostly Cloudy
12:56 PM 45.0 °F 40.1 °F 30.0 °F 56% 29.67 in 10.0 mi North 9.2 mph - N/A   Scattered Clouds
1:56 PM 42.1 °F 34.9 °F 27.0 °F 55% 29.67 in 10.0 mi North 13.8 mph - 0.00 in   Mostly Cloudy
4:56 PM 37.9 °F 29.2 °F 25.0 °F 60% 29.70 in 10.0 mi North 15.0 mph 23.0 mph N/A   Overcast
5:56 PM 37.0 °F 28.5 °F 25.0 °F 62% 29.72 in 10.0 mi North 13.8 mph - N/A   Overcast
6:56 PM 37.0 °F 28.5 °F 26.1 °F 65% 29.74 in 10.0 mi North 13.8 mph - 0.00 in   Overcast
7:56 PM 36.0 °F 28.0 °F 26.1 °F 67% 29.75 in 8.0 mi North 11.5 mph - 0.00 in Snow Light Snow
8:56 PM 36.0 °F 26.0 °F 26.1 °F 67% 29.75 in 10.0 mi North 17.3 mph 21.9 mph 0.00 in   Overcast
9:56 PM 35.1 °F 27.4 °F 25.0 °F 67% 29.75 in 10.0 mi North 10.4 mph - N/A   Overcast
10:56 PM 34.0 °F 26.6 °F 25.0 °F 70% 29.73 in 10.0 mi North 9.2 mph - N/A   Overcast
11:56 PM 33.1 °F 26.1 °F 24.1 °F 70% 29.72 in 10.0 mi NNW 8.1 mph - N/A   Mostly Cloudy